User: anonymous   Login
Location: Unspecified
(0.0000°N, 0.0000°E)
Time: 02:59:16
(UTC+00:00)
Language:

ESSA 8 - Orbit

View from above orbital plane
View from above orbital plane
View from above satellite
View from above satellite

Ground track
Ground track

The orbit data is extracted from the following two-line orbital elements,

1  3615U 68114A   18171.49612872 -.00000035 +00000-0 +44164-4 0  9994
2  3615 101.2755 157.3053 0031209 283.7672 187.5326 12.56199834270506
Epoch (UTC): 20 June 2018 11:54:25
Eccentricity: 0.0031209
inclination: 101.2755°
perigee height: 1414 km
apogee height: 1463 km
right ascension of ascending node: 157.3053°
argument of perigee: 283.7672°
revolutions per day: 12.56199834
mean anomaly at epoch: 187.5326°
orbit number at epoch: 27050

The dashed part of the orbit path shows where the satellite is in the earth's shadow,  

DLR